This is the latest recevied weather packets stored in our database for station/object K5MGY. If no packets are shown the sender has not sent any weather packets the latest 10 day(s).
| Time | Temp. | Humidity | Pressure | Rain* | Wind** | Luminosity | Snow |
|---|---|---|---|---|---|---|---|
| 1778026507 | 28.89° C | 57% | 1029.2 hPa | 0 mm | - | 5 W/m² | - |
| 1778026204 | 29.44° C | 59% | 1028.9 hPa | 0 mm | - | 4 W/m² | - |
| 1778025901 | 29.44° C | 66% | 1028.8 hPa | 0 mm | - | 7 W/m² | - |
| 1778025598 | 29.44° C | 66% | 1028.4 hPa | 0 mm | - | 14 W/m² | - |
| 1778025296 | 30° C | 65% | 1028.3 hPa | 0 mm | - | 23 W/m² | - |
| 1778024993 | 30° C | 66% | 1028.4 hPa | 0 mm | - | 18 W/m² | - |
| 1778024690 | 30° C | 65% | 1028.3 hPa | 0 mm | - | 20 W/m² | - |
| 1778024387 | 30° C | 65% | 1028 hPa | 0 mm | - | 22 W/m² | - |
| 1778024084 | 30° C | 64% | 1028.2 hPa | 0 mm | - | 38 W/m² | - |
| 1778023782 | 30.56° C | 64% | 1028 hPa | 0 mm | - | 59 W/m² | - |
| 1778023480 | 30.56° C | 63% | 1027.8 hPa | 0 mm | - | 68 W/m² | - |
| 1778023177 | 31.11° C | 62% | 1027.7 hPa | 0 mm | - | 66 W/m² | - |
| 1778022874 | 31.11° C | 62% | 1027.9 hPa | 0 mm | - | 78 W/m² | - |
| 1778022572 | 31.11° C | 62% | 1028 hPa | 0 mm | - | 99 W/m² | - |
| 1778022269 | 31.67° C | 61% | 1028.1 hPa | 0 mm | - | 108 W/m² | - |
| 1778021965 | 31.67° C | 59% | 1027.9 hPa | 0 mm | - | 90 W/m² | - |
| 1778021663 | 32.22° C | 55% | 1027.5 hPa | 0 mm | - | 76 W/m² | - |
| 1778021358 | 32.22° C | 53% | 1027.4 hPa | 0 mm | - | 66 W/m² | - |
| 1778021056 | 32.78° C | 54% | 1027.5 hPa | 0 mm | - | 76 W/m² | - |
| 1778020752 | 32.22° C | 54% | 1027.6 hPa | 0 mm | - | 80 W/m² | - |
| 1778020450 | 32.78° C | 54% | 1027.6 hPa | 0 mm | - | 80 W/m² | - |
| 1778020146 | 32.78° C | 54% | 1027.6 hPa | 0 mm | - | 68 W/m² | - |
| 1778019842 | 32.78° C | 54% | 1027.6 hPa | 0 mm | - | 81 W/m² | - |
| 1778019539 | 32.22° C | 54% | 1027.4 hPa | 0 mm | - | 107 W/m² | - |
| 1778019236 | 32.78° C | 53% | 1027.4 hPa | 0 mm | - | 103 W/m² | - |
* Rain latest hour (hover to see other rain measurements)
** Current wind speed in m/s (hover to see current wind gust speed)